Torna al catalogo

COSMOS 84

AttivoMilitareLEO
NORAD 1574·PAYLOAD·🇷🇺 Russia

Lanciato Sep 3, 1965 da Baikonur Cosmodrome

Loading…

Prossimi Passaggi (prossime 24 ore)

TLE

AggiornatoSource: Space-Track

Epoca: Sep 13, 2026, 22:41 UTC

1 01574U 65070E   26256.94578883 -.00000087  00000-0  40659-4 0  9992
2 01574  56.0524 192.7508 0063959 355.1604  75.6107 12.37039044757412

Traccia COSMOS 84 in tempo reale con AllMySat

Download on the App Store